contact:dominique.lefevre@mio.osupytheas.fr, maurice.libes@osupytheas.fr, didier.mallarino@osupytheas.fr
Project:EMSO http://www.emso-fr.org/EMSO-France
Depth: 2436.0 m
Title:EMSO Ligure Ouest : Data MII capteur MICROCAT
DateTime_Computer,Latitude,Longitude,Temperature,Conductivity,Pressure,DateTime_Instrument
DateTime_Computer,Latitude,Longitude,degC,S m-1,dbar,DateTime_Instrument
2017-10-13T00:00:31Z,42.805,6.029,13.2955,4.59975,2472.069,2017-10-13T02:01:55Z
2017-10-13T00:02:06Z,42.805,6.029,13.2952,4.59980,2472.069,2017-10-13T02:03:30Z
2017-10-13T00:03:40Z,42.805,6.029,13.2954,4.59983,2472.047,2017-10-13T02:05:05Z
2017-10-13T00:05:15Z,42.805,6.029,13.2962,4.59973,2472.069,2017-10-13T02:06:40Z
2017-10-13T00:06:50Z,42.805,6.029,13.2952,4.59979,2472.047,2017-10-13T02:08:14Z
2017-10-13T00:08:25Z,42.805,6.029,13.2952,4.59970,2472.077,2017-10-13T02:09:49Z
2017-10-13T00:10:00Z,42.805,6.029,13.2953,4.59987,2472.069,2017-10-13T02:11:24Z
2017-10-13T00:11:35Z,42.805,6.029,13.2954,4.59982,2472.092,2017-10-13T02:12:59Z
2017-10-13T00:13:09Z,42.805,6.029,13.2961,4.59984,2472.092,2017-10-13T02:14:34Z
2017-10-13T00:14:44Z,42.805,6.029,13.2953,4.59978,2472.069,2017-10-13T02:16:09Z
2017-10-13T00:16:19Z,42.805,6.029,13.2959,4.59970,2472.092,2017-10-13T02:17:43Z
2017-10-13T00:17:54Z,42.805,6.029,13.2957,4.59970,2472.069,2017-10-13T02:19:18Z
2017-10-13T00:19:29Z,42.805,6.029,13.2950,4.59971,2472.069,2017-10-13T02:20:53Z
2017-10-13T00:21:04Z,42.805,6.029,13.2961,4.59984,2472.047,2017-10-13T02:22:28Z
2017-10-13T00:22:38Z,42.805,6.029,13.2971,4.59969,2472.069,2017-10-13T02:24:03Z
2017-10-13T00:24:13Z,42.805,6.029,13.2952,4.59975,2472.069,2017-10-13T02:25:38Z
2017-10-13T00:25:48Z,42.805,6.029,13.2950,4.59969,2472.092,2017-10-13T02:27:13Z
2017-10-13T00:27:23Z,42.805,6.029,13.2955,4.59970,2472.055,2017-10-13T02:28:47Z
2017-10-13T00:28:58Z,42.805,6.029,13.2948,4.59982,2472.069,2017-10-13T02:30:22Z
2017-10-13T00:30:33Z,42.805,6.029,13.2963,4.59982,2472.069,2017-10-13T02:31:57Z
2017-10-13T00:32:07Z,42.805,6.029,13.2956,4.59972,2472.055,2017-10-13T02:33:32Z
2017-10-13T00:33:42Z,42.805,6.029,13.2956,4.59972,2472.069,2017-10-13T02:35:07Z
2017-10-13T00:35:17Z,42.805,6.029,13.2951,4.59973,2472.047,2017-10-13T02:36:42Z
2017-10-13T00:36:52Z,42.805,6.029,13.2957,4.59971,2472.069,2017-10-13T02:38:16Z
2017-10-13T00:38:27Z,42.805,6.029,13.2950,4.59969,2472.092,2017-10-13T02:39:51Z
2017-10-13T00:40:02Z,42.805,6.029,13.2952,4.59967,2472.032,2017-10-13T02:41:26Z
2017-10-13T00:41:36Z,42.805,6.029,13.2947,4.59973,2472.077,2017-10-13T02:43:01Z
2017-10-13T00:43:11Z,42.805,6.029,13.2952,4.59985,2472.092,2017-10-13T02:44:36Z
2017-10-13T00:44:46Z,42.805,6.029,13.2952,4.59978,2472.047,2017-10-13T02:46:11Z
2017-10-13T00:46:21Z,42.805,6.029,13.2962,4.59988,2472.032,2017-10-13T02:47:45Z
2017-10-13T00:47:56Z,42.805,6.029,13.2951,4.59980,2472.069,2017-10-13T02:49:20Z
2017-10-13T00:49:31Z,42.805,6.029,13.2959,4.59970,2472.047,2017-10-13T02:50:55Z
2017-10-13T00:51:05Z,42.805,6.029,13.2951,4.59970,2472.069,2017-10-13T02:52:30Z
2017-10-13T00:52:40Z,42.805,6.029,13.2952,4.59972,2472.069,2017-10-13T02:54:05Z
2017-10-13T00:54:15Z,42.805,6.029,13.2950,4.59967,2472.055,2017-10-13T02:55:40Z
2017-10-13T00:55:50Z,42.805,6.029,13.2950,4.59968,2472.092,2017-10-13T02:57:14Z
2017-10-13T00:57:25Z,42.805,6.029,13.2951,4.60023,2472.069,2017-10-13T02:58:49Z
2017-10-13T00:59:00Z,42.805,6.029,13.2958,4.59997,2472.047,2017-10-13T03:00:24Z
2017-10-13T01:00:34Z,42.805,6.029,13.2964,4.59975,2472.047,2017-10-13T03:01:59Z
2017-10-13T01:02:09Z,42.805,6.029,13.2950,4.59979,2472.047,2017-10-13T03:03:34Z
2017-10-13T01:03:44Z,42.805,6.029,13.2948,4.59972,2472.047,2017-10-13T03:05:09Z
2017-10-13T01:05:19Z,42.805,6.029,13.2949,4.59972,2472.069,2017-10-13T03:06:43Z
2017-10-13T01:06:54Z,42.805,6.029,13.2954,4.59969,2472.032,2017-10-13T03:08:18Z
2017-10-13T01:08:29Z,42.805,6.029,13.2954,4.59979,2472.047,2017-10-13T03:09:53Z
2017-10-13T01:10:03Z,42.805,6.029,13.2943,4.59987,2472.047,2017-10-13T03:11:28Z
2017-10-13T01:11:38Z,42.805,6.029,13.2957,4.59989,2472.047,2017-10-13T03:13:03Z
2017-10-13T01:13:13Z,42.805,6.029,13.2965,4.59970,2472.047,2017-10-13T03:14:38Z
2017-10-13T01:14:48Z,42.805,6.029,13.2948,4.59975,2472.069,2017-10-13T03:16:12Z
2017-10-13T01:16:23Z,42.805,6.029,13.2951,4.59973,2472.047,2017-10-13T03:17:47Z
2017-10-13T01:17:58Z,42.805,6.029,13.2951,4.59972,2472.069,2017-10-13T03:19:22Z
2017-10-13T01:19:32Z,42.805,6.029,13.2949,4.59989,2472.055,2017-10-13T03:20:57Z
2017-10-13T01:21:07Z,42.805,6.029,13.2951,4.59975,2472.032,2017-10-13T03:22:32Z
2017-10-13T01:22:42Z,42.805,6.029,13.2963,4.59987,2472.024,2017-10-13T03:24:07Z
2017-10-13T01:24:17Z,42.805,6.029,13.2955,4.59971,2472.032,2017-10-13T03:25:41Z
2017-10-13T01:25:52Z,42.805,6.029,13.2956,4.59975,2472.047,2017-10-13T03:27:16Z
2017-10-13T01:27:27Z,42.805,6.029,13.2957,4.59970,2472.077,2017-10-13T03:28:51Z
2017-10-13T01:29:02Z,42.805,6.029,13.2945,4.59968,2472.047,2017-10-13T03:30:26Z
2017-10-13T01:30:36Z,42.805,6.029,13.2961,4.59969,2472.032,2017-10-13T03:32:01Z
2017-10-13T01:32:11Z,42.805,6.029,13.2951,4.59970,2472.032,2017-10-13T03:33:36Z
2017-10-13T01:33:46Z,42.805,6.029,13.2951,4.59974,2472.069,2017-10-13T03:35:10Z
2017-10-13T01:35:21Z,42.805,6.029,13.2947,4.59984,2472.047,2017-10-13T03:36:45Z
2017-10-13T01:36:56Z,42.805,6.029,13.2945,4.59981,2472.047,2017-10-13T03:38:20Z
2017-10-13T01:38:31Z,42.805,6.029,13.2960,4.59972,2472.055,2017-10-13T03:39:55Z
2017-10-13T01:40:05Z,42.805,6.029,13.2955,4.59973,2472.069,2017-10-13T03:41:30Z
2017-10-13T01:41:40Z,42.805,6.029,13.2951,4.59980,2472.069,2017-10-13T03:43:05Z
2017-10-13T01:43:15Z,42.805,6.029,13.2958,4.59974,2472.069,2017-10-13T03:44:39Z
2017-10-13T01:44:50Z,42.805,6.029,13.2957,4.59970,2472.047,2017-10-13T03:46:14Z
2017-10-13T01:46:25Z,42.805,6.029,13.2951,4.59975,2472.047,2017-10-13T03:47:49Z
2017-10-13T01:48:00Z,42.805,6.029,13.2958,4.59976,2472.069,2017-10-13T03:49:24Z
2017-10-13T01:49:34Z,42.805,6.029,13.2957,4.59969,2472.055,2017-10-13T03:50:59Z
2017-10-13T01:51:09Z,42.805,6.029,13.2952,4.59970,2472.069,2017-10-13T03:52:34Z
2017-10-13T01:52:44Z,42.805,6.029,13.2947,4.59972,2472.032,2017-10-13T03:54:09Z
2017-10-13T01:54:19Z,42.805,6.029,13.2956,4.59974,2472.069,2017-10-13T03:55:43Z
2017-10-13T01:55:54Z,42.805,6.029,13.2954,4.59984,2472.055,2017-10-13T03:57:18Z
2017-10-13T01:57:29Z,42.805,6.029,13.2955,4.59988,2472.069,2017-10-13T03:58:53Z
2017-10-13T01:59:03Z,42.805,6.029,13.2951,4.59987,2472.069,2017-10-13T04:00:28Z
2017-10-13T02:00:38Z,42.805,6.029,13.2949,4.59992,2472.069,2017-10-13T04:02:03Z
2017-10-13T02:02:13Z,42.805,6.029,13.2950,4.59976,2472.032,2017-10-13T04:03:38Z
2017-10-13T02:03:48Z,42.805,6.029,13.2945,4.59981,2472.047,2017-10-13T04:05:12Z
2017-10-13T02:05:23Z,42.805,6.029,13.2964,4.59975,2472.055,2017-10-13T04:06:47Z
2017-10-13T02:06:58Z,42.805,6.029,13.2954,4.59976,2472.055,2017-10-13T04:08:22Z
2017-10-13T02:08:32Z,42.805,6.029,13.2948,4.59970,2472.047,2017-10-13T04:09:57Z
2017-10-13T02:10:07Z,42.805,6.029,13.2953,4.59972,2472.055,2017-10-13T04:11:32Z
2017-10-13T02:11:42Z,42.805,6.029,13.2949,4.59975,2472.047,2017-10-13T04:13:07Z
2017-10-13T02:13:17Z,42.805,6.029,13.2949,4.59977,2472.047,2017-10-13T04:14:41Z
2017-10-13T02:14:52Z,42.805,6.029,13.2945,4.59972,2472.047,2017-10-13T04:16:16Z
2017-10-13T02:16:27Z,42.805,6.029,13.2951,4.59984,2472.032,2017-10-13T04:17:51Z
2017-10-13T02:18:01Z,42.805,6.029,13.2953,4.59975,2472.024,2017-10-13T04:19:26Z
2017-10-13T02:19:36Z,42.805,6.029,13.2951,4.59982,2472.069,2017-10-13T04:21:01Z
2017-10-13T02:21:11Z,42.805,6.029,13.2960,4.59979,2472.055,2017-10-13T04:22:36Z
2017-10-13T02:22:46Z,42.805,6.029,13.2961,4.59981,2472.069,2017-10-13T04:24:10Z
2017-10-13T02:24:21Z,42.805,6.029,13.2951,4.59978,2472.069,2017-10-13T04:25:45Z
2017-10-13T02:25:56Z,42.805,6.029,13.2951,4.60002,2472.032,2017-10-13T04:27:20Z
2017-10-13T02:27:30Z,42.805,6.029,13.2957,4.59981,2472.069,2017-10-13T04:28:55Z
2017-10-13T02:29:05Z,42.805,6.029,13.2964,4.59978,2472.032,2017-10-13T04:30:30Z
2017-10-13T02:30:40Z,42.805,6.029,13.2957,4.60005,2472.092,2017-10-13T04:32:05Z
2017-10-13T02:32:15Z,42.805,6.029,13.2965,4.59974,2472.047,2017-10-13T04:33:39Z
2017-10-13T02:33:50Z,42.805,6.029,13.2950,4.59997,2472.055,2017-10-13T04:35:14Z
2017-10-13T02:35:25Z,42.805,6.029,13.2944,4.59982,2472.032,2017-10-13T04:36:49Z
2017-10-13T02:36:59Z,42.805,6.029,13.2943,4.60003,2472.069,2017-10-13T04:38:24Z
2017-10-13T02:38:34Z,42.805,6.029,13.2958,4.59975,2472.069,2017-10-13T04:39:59Z
2017-10-13T02:40:09Z,42.805,6.029,13.2950,4.59968,2472.069,2017-10-13T04:41:34Z
2017-10-13T02:41:44Z,42.805,6.029,13.2955,4.59967,2472.047,2017-10-13T04:43:08Z
2017-10-13T02:43:19Z,42.805,6.029,13.2951,4.59966,2472.069,2017-10-13T04:44:43Z
2017-10-13T02:44:54Z,42.805,6.029,13.2955,4.59965,2472.032,2017-10-13T04:46:18Z
2017-10-13T02:46:28Z,42.805,6.029,13.2949,4.59985,2472.047,2017-10-13T04:47:53Z
2017-10-13T02:48:03Z,42.805,6.029,13.2947,4.59983,2472.047,2017-10-13T04:49:28Z
2017-10-13T02:49:38Z,42.805,6.029,13.2950,4.59988,2472.055,2017-10-13T04:51:03Z
2017-10-13T02:51:13Z,42.805,6.029,13.2941,4.59990,2472.032,2017-10-13T04:52:37Z
2017-10-13T02:52:48Z,42.805,6.029,13.2942,4.59994,2472.01,2017-10-13T04:54:12Z
2017-10-13T02:54:23Z,42.805,6.029,13.2951,4.59997,2472.047,2017-10-13T04:55:47Z
2017-10-13T02:55:58Z,42.805,6.029,13.2961,4.59987,2472.024,2017-10-13T04:57:22Z
2017-10-13T02:57:32Z,42.805,6.029,13.2966,4.59981,2472.047,2017-10-13T04:58:57Z
2017-10-13T02:59:07Z,42.805,6.029,13.2940,4.59989,2472.024,2017-10-13T05:00:32Z
2017-10-13T03:00:42Z,42.805,6.029,13.2939,4.59986,2472.024,2017-10-13T05:02:06Z
2017-10-13T03:02:17Z,42.805,6.029,13.2950,4.60000,2472.055,2017-10-13T05:03:41Z
2017-10-13T03:03:52Z,42.805,6.029,13.2957,4.59989,2472.01,2017-10-13T05:05:16Z
2017-10-13T03:05:26Z,42.805,6.029,13.2943,4.59977,2472.069,2017-10-13T05:06:51Z
2017-10-13T03:07:01Z,42.805,6.029,13.2958,4.59987,2472.047,2017-10-13T05:08:26Z
2017-10-13T03:08:36Z,42.805,6.029,13.2949,4.59988,2472.047,2017-10-13T05:10:01Z
2017-10-13T03:10:11Z,42.805,6.029,13.2943,4.60003,2472.024,2017-10-13T05:11:35Z
2017-10-13T03:11:46Z,42.805,6.029,13.2958,4.59995,2472.024,2017-10-13T05:13:10Z
2017-10-13T03:13:21Z,42.805,6.029,13.2935,4.59997,2472.047,2017-10-13T05:14:45Z
2017-10-13T03:14:56Z,42.805,6.029,13.2940,4.59986,2472.024,2017-10-13T05:16:20Z
2017-10-13T03:16:30Z,42.805,6.029,13.2952,4.59998,2472.024,2017-10-13T05:17:55Z
2017-10-13T03:18:05Z,42.805,6.029,13.2951,4.59982,2472.069,2017-10-13T05:19:30Z
2017-10-13T03:19:40Z,42.805,6.029,13.2957,4.59987,2472.092,2017-10-13T05:21:04Z
2017-10-13T03:21:15Z,42.805,6.029,13.2944,4.59992,2472.01,2017-10-13T05:22:39Z
2017-10-13T03:22:50Z,42.805,6.029,13.2947,4.59995,2472.032,2017-10-13T05:24:14Z
2017-10-13T03:24:25Z,42.805,6.029,13.2961,4.59994,2472.032,2017-10-13T05:25:49Z
2017-10-13T03:25:59Z,42.805,6.029,13.2938,4.59981,2472.032,2017-10-13T05:27:24Z
2017-10-13T03:27:34Z,42.805,6.029,13.2940,4.59984,2472.069,2017-10-13T05:28:59Z
2017-10-13T03:29:09Z,42.805,6.029,13.2939,4.59984,2472.024,2017-10-13T05:30:33Z
2017-10-13T03:30:44Z,42.805,6.029,13.2943,4.59984,2472.047,2017-10-13T05:32:08Z
2017-10-13T03:32:19Z,42.805,6.029,13.2939,4.59991,2472.047,2017-10-13T05:33:43Z
2017-10-13T03:33:54Z,42.805,6.029,13.2945,4.59990,2472.039,2017-10-13T05:35:18Z
2017-10-13T03:35:28Z,42.805,6.029,13.2960,4.59991,2472.047,2017-10-13T05:36:53Z
2017-10-13T03:37:03Z,42.805,6.029,13.2951,4.59990,2472.032,2017-10-13T05:38:28Z
2017-10-13T03:38:38Z,42.805,6.029,13.2973,4.59994,2472.055,2017-10-13T05:40:02Z
2017-10-13T03:40:13Z,42.805,6.029,13.2954,4.59990,2472.032,2017-10-13T05:41:37Z
2017-10-13T03:41:48Z,42.805,6.029,13.2958,4.59986,2472.01,2017-10-13T05:43:12Z
2017-10-13T03:43:23Z,42.805,6.029,13.2954,4.60004,2472.047,2017-10-13T05:44:47Z
2017-10-13T03:44:57Z,42.805,6.029,13.2943,4.59986,2472.024,2017-10-13T05:46:22Z
2017-10-13T03:46:32Z,42.805,6.029,13.2946,4.59981,2472.047,2017-10-13T05:47:57Z
2017-10-13T03:48:07Z,42.805,6.029,13.2948,4.59984,2472.024,2017-10-13T05:49:32Z
2017-10-13T03:49:42Z,42.805,6.029,13.2951,4.59975,2472.024,2017-10-13T05:51:06Z
2017-10-13T03:51:17Z,42.805,6.029,13.2952,4.59985,2472.032,2017-10-13T05:52:41Z
2017-10-13T03:52:52Z,42.805,6.029,13.2940,4.59984,2472.047,2017-10-13T05:54:16Z
2017-10-13T03:54:26Z,42.805,6.029,13.2940,4.60004,2472.01,2017-10-13T05:55:51Z
2017-10-13T03:56:01Z,42.805,6.029,13.2949,4.60004,2472.047,2017-10-13T05:57:26Z
2017-10-13T03:57:36Z,42.805,6.029,13.2946,4.59988,2472.032,2017-10-13T05:59:01Z
2017-10-13T03:59:11Z,42.805,6.029,13.2934,4.59983,2472.024,2017-10-13T06:00:35Z
2017-10-13T04:00:46Z,42.805,6.029,13.2949,4.59996,2472.047,2017-10-13T06:02:10Z
2017-10-13T04:02:21Z,42.805,6.029,13.2954,4.60004,2472.01,2017-10-13T06:03:45Z
2017-10-13T04:03:55Z,42.805,6.029,13.2940,4.60009,2472.024,2017-10-13T06:05:20Z
2017-10-13T04:05:30Z,42.805,6.029,13.2935,4.59971,2472.01,2017-10-13T06:06:55Z
2017-10-13T04:07:05Z,42.805,6.029,13.2929,4.59982,2472.032,2017-10-13T06:08:30Z
2017-10-13T04:08:40Z,42.805,6.029,13.2937,4.59975,2472.047,2017-10-13T06:10:04Z
2017-10-13T04:10:15Z,42.805,6.029,13.2950,4.59984,2472.032,2017-10-13T06:11:39Z
2017-10-13T04:11:50Z,42.805,6.029,13.2952,4.59994,2472.01,2017-10-13T06:13:14Z
2017-10-13T04:13:24Z,42.805,6.029,13.2939,4.60001,2472.024,2017-10-13T06:14:49Z
2017-10-13T04:14:59Z,42.805,6.029,13.2954,4.60018,2472.024,2017-10-13T06:16:24Z
2017-10-13T04:16:34Z,42.805,6.029,13.2960,4.59978,2472.024,2017-10-13T06:17:59Z
2017-10-13T04:18:09Z,42.805,6.029,13.2945,4.59990,2472.047,2017-10-13T06:19:33Z
2017-10-13T04:19:44Z,42.805,6.029,13.2943,4.59988,2472.002,2017-10-13T06:21:08Z
2017-10-13T04:21:19Z,42.805,6.029,13.2940,4.59990,2472.047,2017-10-13T06:22:43Z
2017-10-13T04:22:53Z,42.805,6.029,13.2938,4.59998,2472.047,2017-10-13T06:24:18Z
2017-10-13T04:24:28Z,42.805,6.029,13.2940,4.59990,2472.032,2017-10-13T06:25:53Z
2017-10-13T04:26:03Z,42.805,6.029,13.2940,4.59987,2472.002,2017-10-13T06:27:28Z
2017-10-13T04:27:38Z,42.805,6.029,13.2950,4.59990,2472.002,2017-10-13T06:29:02Z
2017-10-13T04:29:13Z,42.805,6.029,13.2957,4.59987,2472.047,2017-10-13T06:30:37Z
2017-10-13T04:30:48Z,42.805,6.029,13.2950,4.59993,2472.047,2017-10-13T06:32:12Z
2017-10-13T04:32:22Z,42.805,6.029,13.2942,4.59988,2472.032,2017-10-13T06:33:47Z
2017-10-13T04:33:57Z,42.805,6.029,13.2943,4.59973,2472.002,2017-10-13T06:35:22Z
2017-10-13T04:35:32Z,42.805,6.029,13.2939,4.59990,2472.002,2017-10-13T06:36:57Z
2017-10-13T04:37:07Z,42.805,6.029,13.2945,4.59991,2472.024,2017-10-13T06:38:31Z
2017-10-13T04:38:42Z,42.805,6.029,13.2948,4.59995,2472.024,2017-10-13T06:40:06Z
2017-10-13T04:40:17Z,42.805,6.029,13.2948,4.59995,2472.024,2017-10-13T06:41:41Z
2017-10-13T04:41:52Z,42.805,6.029,13.2957,4.59990,2472.002,2017-10-13T06:43:16Z
2017-10-13T04:43:26Z,42.805,6.029,13.2951,4.59980,2472.016,2017-10-13T06:44:51Z
2017-10-13T04:45:01Z,42.805,6.029,13.2961,4.59992,2472.024,2017-10-13T06:46:26Z
2017-10-13T04:46:36Z,42.805,6.029,13.2971,4.59993,2472.024,2017-10-13T06:48:00Z
2017-10-13T04:48:11Z,42.805,6.029,13.2944,4.59999,2472.047,2017-10-13T06:49:35Z
2017-10-13T04:49:46Z,42.805,6.029,13.2948,4.59988,2472.01,2017-10-13T06:51:10Z
2017-10-13T04:51:21Z,42.805,6.029,13.2954,4.59997,2472.002,2017-10-13T06:52:45Z
2017-10-13T04:52:55Z,42.805,6.029,13.2958,4.60006,2472.024,2017-10-13T06:54:20Z
2017-10-13T04:54:30Z,42.805,6.029,13.2945,4.59989,2472.002,2017-10-13T06:55:55Z
2017-10-13T04:56:05Z,42.805,6.029,13.2939,4.59988,2472.01,2017-10-13T06:57:29Z
2017-10-13T04:57:40Z,42.805,6.029,13.2958,4.59993,2472.032,2017-10-13T06:59:04Z
2017-10-13T04:59:15Z,42.805,6.029,13.2945,4.60004,2472.024,2017-10-13T07:00:39Z
2017-10-13T05:00:50Z,42.805,6.029,13.2948,4.59991,2472.024,2017-10-13T07:02:14Z
2017-10-13T05:02:24Z,42.805,6.029,13.2950,4.59987,2472.024,2017-10-13T07:03:49Z
2017-10-13T05:03:59Z,42.805,6.029,13.2940,4.60000,2472.024,2017-10-13T07:05:24Z
2017-10-13T05:05:34Z,42.805,6.029,13.2945,4.59992,2471.987,2017-10-13T07:06:58Z
2017-10-13T05:07:09Z,42.805,6.029,13.2935,4.59976,2471.987,2017-10-13T07:08:33Z
2017-10-13T05:08:44Z,42.805,6.029,13.2939,4.59977,2472.024,2017-10-13T07:10:08Z
2017-10-13T05:10:19Z,42.805,6.029,13.2939,4.59991,2472.047,2017-10-13T07:11:43Z
2017-10-13T05:11:53Z,42.805,6.029,13.2943,4.60007,2472.002,2017-10-13T07:13:18Z
2017-10-13T05:13:28Z,42.805,6.029,13.2964,4.60004,2472.01,2017-10-13T07:14:53Z
2017-10-13T05:15:03Z,42.805,6.029,13.2974,4.60007,2472.01,2017-10-13T07:16:28Z
2017-10-13T05:16:38Z,42.805,6.029,13.2961,4.59998,2472.024,2017-10-13T07:18:02Z
2017-10-13T05:18:13Z,42.805,6.029,13.2947,4.59974,2472.002,2017-10-13T07:19:37Z
2017-10-13T05:19:48Z,42.805,6.029,13.2964,4.59992,2472.01,2017-10-13T07:21:12Z
2017-10-13T05:21:22Z,42.805,6.029,13.2947,4.60038,2472.002,2017-10-13T07:22:47Z
2017-10-13T05:22:57Z,42.805,6.029,13.2936,4.59977,2471.987,2017-10-13T07:24:22Z
2017-10-13T05:24:32Z,42.805,6.029,13.2933,4.59967,2472.002,2017-10-13T07:25:57Z
2017-10-13T05:26:07Z,42.805,6.029,13.2948,4.59985,2472.024,2017-10-13T07:27:31Z
2017-10-13T05:27:42Z,42.805,6.029,13.2954,4.59991,2472.024,2017-10-13T07:29:06Z
2017-10-13T05:29:17Z,42.805,6.029,13.2947,4.60015,2472.002,2017-10-13T07:30:41Z
2017-10-13T05:30:51Z,42.805,6.029,13.2936,4.59981,2472.024,2017-10-13T07:32:16Z
2017-10-13T05:32:26Z,42.805,6.029,13.2942,4.59985,2472.002,2017-10-13T07:33:51Z
2017-10-13T05:34:01Z,42.805,6.029,13.2937,4.59990,2472.01,2017-10-13T07:35:26Z
2017-10-13T05:35:36Z,42.805,6.029,13.2943,4.59988,2472.002,2017-10-13T07:37:00Z
2017-10-13T05:37:11Z,42.805,6.029,13.2975,4.59994,2471.987,2017-10-13T07:38:35Z
2017-10-13T05:38:46Z,42.805,6.029,13.2949,4.60001,2471.987,2017-10-13T07:40:10Z
2017-10-13T05:40:20Z,42.805,6.029,13.2955,4.59995,2472.002,2017-10-13T07:41:45Z
2017-10-13T05:41:55Z,42.805,6.029,13.2964,4.59990,2471.987,2017-10-13T07:43:20Z
2017-10-13T05:43:30Z,42.805,6.029,13.2961,4.59978,2471.987,2017-10-13T07:44:55Z
2017-10-13T05:45:05Z,42.805,6.029,13.2952,4.60001,2472.024,2017-10-13T07:46:29Z
2017-10-13T05:46:40Z,42.805,6.029,13.2950,4.59993,2472.002,2017-10-13T07:48:04Z
2017-10-13T05:48:15Z,42.805,6.029,13.2950,4.59999,2472.024,2017-10-13T07:49:39Z
2017-10-13T05:49:49Z,42.805,6.029,13.2954,4.59986,2472.002,2017-10-13T07:51:14Z
2017-10-13T05:51:24Z,42.805,6.029,13.2955,4.59998,2471.987,2017-10-13T07:52:49Z
2017-10-13T05:52:59Z,42.805,6.029,13.2945,4.59990,2471.987,2017-10-13T07:54:24Z
2017-10-13T05:54:34Z,42.805,6.029,13.2947,4.59990,2472.024,2017-10-13T07:55:58Z
2017-10-13T05:56:09Z,42.805,6.029,13.2944,4.59984,2471.979,2017-10-13T07:57:33Z
2017-10-13T05:57:44Z,42.805,6.029,13.2958,4.59995,2471.964,2017-10-13T07:59:08Z
2017-10-13T05:59:18Z,42.805,6.029,13.2958,4.59981,2472.002,2017-10-13T08:00:43Z
2017-10-13T06:00:53Z,42.805,6.029,13.2945,4.59982,2472.024,2017-10-13T08:02:18Z
2017-10-13T06:02:28Z,42.805,6.029,13.2955,4.59990,2472.01,2017-10-13T08:03:53Z
2017-10-13T06:04:03Z,42.805,6.029,13.2958,4.59988,2471.964,2017-10-13T08:05:27Z
2017-10-13T06:05:38Z,42.805,6.029,13.2970,4.59986,2472.002,2017-10-13T08:07:02Z
2017-10-13T06:07:13Z,42.805,6.029,13.2961,4.59981,2472.024,2017-10-13T08:08:37Z
2017-10-13T06:08:47Z,42.805,6.029,13.2965,4.59971,2472.002,2017-10-13T08:10:12Z
2017-10-13T06:10:22Z,42.805,6.029,13.2949,4.59983,2472.002,2017-10-13T08:11:47Z
2017-10-13T06:11:57Z,42.805,6.029,13.2948,4.59973,2472.002,2017-10-13T08:13:22Z
2017-10-13T06:13:32Z,42.805,6.029,13.2957,4.59976,2472.002,2017-10-13T08:14:56Z
2017-10-13T06:15:07Z,42.805,6.029,13.2954,4.59977,2472.002,2017-10-13T08:16:31Z
2017-10-13T06:16:42Z,42.805,6.029,13.2953,4.59998,2472.002,2017-10-13T08:18:06Z
2017-10-13T06:18:16Z,42.805,6.029,13.2947,4.60004,2471.979,2017-10-13T08:19:41Z
2017-10-13T06:19:51Z,42.805,6.029,13.2965,4.59988,2471.979,2017-10-13T08:21:16Z
2017-10-13T06:21:26Z,42.805,6.029,13.2951,4.59982,2471.979,2017-10-13T08:22:51Z
2017-10-13T06:23:01Z,42.805,6.029,13.2936,4.59984,2471.964,2017-10-13T08:24:25Z
2017-10-13T06:24:36Z,42.805,6.029,13.2958,4.60003,2472.002,2017-10-13T08:26:00Z
2017-10-13T06:26:11Z,42.805,6.029,13.2955,4.59992,2471.942,2017-10-13T08:27:35Z
2017-10-13T06:27:46Z,42.805,6.029,13.2951,4.59996,2471.957,2017-10-13T08:29:10Z
2017-10-13T06:29:20Z,42.805,6.029,13.2950,4.59982,2471.979,2017-10-13T08:30:45Z
2017-10-13T06:30:55Z,42.805,6.029,13.2957,4.60021,2471.964,2017-10-13T08:32:20Z
2017-10-13T06:32:30Z,42.805,6.029,13.2936,4.59986,2471.979,2017-10-13T08:33:54Z
2017-10-13T06:34:05Z,42.805,6.029,13.2934,4.59973,2472.002,2017-10-13T08:35:29Z
2017-10-13T06:35:40Z,42.805,6.029,13.2934,4.59996,2472.002,2017-10-13T08:37:04Z
2017-10-13T06:37:15Z,42.805,6.029,13.2937,4.59981,2471.979,2017-10-13T08:38:39Z
2017-10-13T06:38:49Z,42.805,6.029,13.2962,4.59991,2471.987,2017-10-13T08:40:14Z
2017-10-13T06:40:24Z,42.805,6.029,13.2961,4.60006,2471.979,2017-10-13T08:41:49Z
2017-10-13T06:41:59Z,42.805,6.029,13.2944,4.59990,2472.002,2017-10-13T08:43:23Z
2017-10-13T06:43:34Z,42.805,6.029,13.2945,4.59990,2472.002,2017-10-13T08:44:58Z
2017-10-13T06:45:09Z,42.805,6.029,13.2976,4.59998,2472.002,2017-10-13T08:46:33Z
2017-10-13T06:46:44Z,42.805,6.029,13.2950,4.59989,2471.957,2017-10-13T08:48:08Z
2017-10-13T06:48:18Z,42.805,6.029,13.2967,4.59981,2472.002,2017-10-13T08:49:43Z
2017-10-13T06:49:53Z,42.805,6.029,13.2952,4.59989,2471.987,2017-10-13T08:51:18Z
2017-10-13T06:51:28Z,42.805,6.029,13.2941,4.59990,2472.002,2017-10-13T08:52:53Z
2017-10-13T06:53:03Z,42.805,6.029,13.2953,4.60001,2472.002,2017-10-13T08:54:27Z
2017-10-13T06:54:38Z,42.805,6.029,13.2954,4.60014,2472.002,2017-10-13T08:56:02Z
2017-10-13T06:56:13Z,42.805,6.029,13.2959,4.60001,2472.047,2017-10-13T08:57:37Z
2017-10-13T06:57:47Z,42.805,6.029,13.2958,4.59998,2471.979,2017-10-13T08:59:12Z
2017-10-13T06:59:22Z,42.805,6.029,13.2971,4.59990,2472.002,2017-10-13T09:00:47Z
2017-10-13T07:00:57Z,42.805,6.029,13.2973,4.59999,2472.002,2017-10-13T09:02:22Z
2017-10-13T07:02:32Z,42.805,6.029,13.2960,4.59982,2472.002,2017-10-13T09:03:56Z
2017-10-13T07:04:07Z,42.805,6.029,13.2964,4.59997,2471.979,2017-10-13T09:05:31Z
2017-10-13T07:05:42Z,42.805,6.029,13.2956,4.60006,2471.979,2017-10-13T09:07:06Z
2017-10-13T07:07:16Z,42.805,6.029,13.2938,4.59985,2471.987,2017-10-13T09:08:41Z
2017-10-13T07:08:51Z,42.805,6.029,13.2966,4.59989,2472.002,2017-10-13T09:10:16Z
2017-10-13T07:10:26Z,42.805,6.029,13.2948,4.60023,2472.002,2017-10-13T09:11:51Z
2017-10-13T07:12:01Z,42.805,6.029,13.2977,4.59993,2471.979,2017-10-13T09:13:25Z
2017-10-13T07:13:36Z,42.805,6.029,13.2957,4.59998,2472.002,2017-10-13T09:15:00Z
2017-10-13T07:15:11Z,42.805,6.029,13.2970,4.60010,2471.942,2017-10-13T09:16:35Z
2017-10-13T07:16:45Z,42.805,6.029,13.2960,4.59990,2471.979,2017-10-13T09:18:10Z
2017-10-13T07:18:20Z,42.805,6.029,13.2968,4.60038,2471.979,2017-10-13T09:19:45Z
2017-10-13T07:19:55Z,42.805,6.029,13.2961,4.59990,2471.964,2017-10-13T09:21:20Z
2017-10-13T07:21:30Z,42.805,6.029,13.2950,4.59984,2471.979,2017-10-13T09:22:54Z
2017-10-13T07:23:05Z,42.805,6.029,13.2982,4.60007,2472.002,2017-10-13T09:24:29Z
2017-10-13T07:24:40Z,42.805,6.029,13.2960,4.60001,2472.024,2017-10-13T09:26:04Z
2017-10-13T07:26:14Z,42.805,6.029,13.2958,4.60009,2471.979,2017-10-13T09:27:39Z
2017-10-13T07:27:49Z,42.805,6.029,13.2962,4.60003,2471.979,2017-10-13T09:29:14Z
2017-10-13T07:29:24Z,42.805,6.029,13.2959,4.60007,2471.979,2017-10-13T09:30:49Z
2017-10-13T07:30:59Z,42.805,6.029,13.2956,4.59995,2471.979,2017-10-13T09:32:23Z
2017-10-13T07:32:34Z,42.805,6.029,13.2968,4.59997,2472.024,2017-10-13T09:33:58Z
2017-10-13T07:34:09Z,42.805,6.029,13.2966,4.59992,2472.002,2017-10-13T09:35:33Z
2017-10-13T07:35:43Z,42.805,6.029,13.2952,4.59989,2471.979,2017-10-13T09:37:08Z
2017-10-13T07:37:18Z,42.805,6.029,13.2943,4.59997,2471.979,2017-10-13T09:38:43Z
2017-10-13T07:38:53Z,42.805,6.029,13.2968,4.59978,2471.964,2017-10-13T09:40:18Z
2017-10-13T07:40:28Z,42.805,6.029,13.2951,4.60000,2472.002,2017-10-13T09:41:52Z
2017-10-13T07:42:03Z,42.805,6.029,13.2949,4.60013,2471.979,2017-10-13T09:43:27Z
2017-10-13T07:43:38Z,42.805,6.029,13.2958,4.59998,2472.002,2017-10-13T09:45:02Z
2017-10-13T07:45:12Z,42.805,6.029,13.2964,4.60003,2471.964,2017-10-13T09:46:37Z